{"data":{"norad_id":53509,"epoch":"2026-05-25T04:00:03.998880Z","epoch_age_seconds":71312,"freshness":"FRESH","line1":"1 53509U 22099AW  26145.16671295  .00365118  00000+0  87848-2 0  9999","line2":"2 53509  97.6044 267.2033 0001643  69.0590 136.4751 15.39831157  5724","mean_motion":15.39831157,"eccentricity":0.0001643,"inclination_deg":97.6044,"raan_deg":267.2033,"arg_perigee_deg":69.059,"mean_anomaly_deg":136.4751,"bstar":0.0087848,"rev_number":572,"period_min":93.516746524697,"perigee_km":445.48685715677,"apogee_km":447.72946841726,"semimajor_km":6824.745162787,"source":"CELESTRAK","updated_at":"2026-05-25T13:38:17.438987Z"}}